2023-001Z (55032 NORAD) Tracking and Keplerian Element Data

This shows tracking and keplerian element data for the satellite.

Feedback or suggestion? Click here.




ElementValue
Catalog55032
Name2023-001Z
Epoch Orbit170
Epoch Day13.85203223
Epoch Year2023
RAAN75.7923
Inclination97.5018
Eccentricity0.0013012
Argument of Perigee173.1998
Mean Anonmoly186.9411
Mean Motion15.12542753
Decay Rate9.146E-05
L11 55032U 23001Z 23013.85203223 .00009146 00000+0 52712-3 0 9994
L22 55032 97.5018 75.7923 0013012 173.1998 186.9411 15.12542753 1708



Live tracking and technical data element details for 2023-001Z (NORAD 55032). 2023-001Z can be tracked NOW for your location showing map with azimuth and elevation plus other details from your city location.







IsCatalogInMostPopularTable: catalog: 55032, numindb: 3
Update: records affected: 1



GetName: 55032 2023-001Z

Hit Count: updated at: Tue, 07 Feb 2023 15:19:32 GMT